Vorticity
nan nan nan nan nan nan nan nan nan nan nan nan nan nan nan nan nan nan nan nan nan nan nan nan nan nan nan nan nan nan nan nan nan nan nan nan nan nan nan nan nan nan nan nan nan
nan 6 5 6 7 6 5 6 7 6 6 9 11 9 9 9 8 11 15 13 10 9 11 6 6 9 6 3 9 7 5 8 6 11 10 10 8 5 5 4 4 3 15 17 nan
nan 6 6 6 7 6 6 7 7 6 8 9 9 12 16 10 10 11 8 9 14 16 10 7 9 13 14 8 6 2 3 5 1 11 7 14 14 4 4 8 5 10 10 5 nan
nan 6 6 7 7 6 6 6 7 7 5 5 10 18 15 8 6 7 2 4 7 17 13 12 10 8 10 13 6 9 7 3 4 3 8 9 9 10 3 9 15 21 9 6 nan
nan 7 7 7 6 5 5 5 6 8 6 4 9 11 7 6 14 6 0 2 7 11 12 10 9 7 6 6 7 13 15 9 5 -4 3 10 14 15 3 1 19 20 10 6 nan
nan 7 6 7 6 6 6 5 5 7 10 8 9 9 7 5 13 2 1 9 10 6 11 10 7 7 13 17 8 4 13 8 11 0 4 12 12 9 11 6 17 9 8 7 nan
nan 7 7 7 6 6 6 6 6 8 13 12 10 9 10 15 4 2 5 8 11 10 8 12 13 8 5 12 16 9 6 12 14 8 5 10 11 6 11 12 12 8 8 8 nan
nan 8 7 7 7 7 7 7 7 10 13 12 11 10 8 13 5 10 9 10 15 10 8 12 17 8 1 8 16 18 14 17 18 6 5 10 14 13 7 10 8 8 8 8 nan
nan 7 8 8 9 8 8 6 13 13 13 14 10 6 9 6 0 10 15 8 14 15 12 12 8 10 8 6 8 7 15 24 12 9 3 6 11 17 6 8 8 8 9 8 nan
nan 7 7 8 9 9 10 16 18 18 13 8 7 9 3 -5 10 15 14 13 13 15 10 8 6 5 2 5 4 3 12 21 10 12 6 3 6 8 11 9 8 8 8 8 nan
nan 8 7 9 10 9 15 22 18 12 3 3 7 8 2 12 13 10 8 16 22 12 7 7 4 8 8 4 5 5 14 19 6 11 10 4 7 6 9 10 9 9 8 7 nan
nan 7 7 9 9 12 14 12 10 8 12 8 6 10 9 9 10 7 6 11 18 13 3 5 12 8 7 12 14 11 17 15 9 8 10 9 9 9 10 10 10 8 7 7 nan
nan 8 8 10 13 15 10 11 7 9 10 6 11 12 10 7 9 7 12 7 4 14 12 3 11 18 7 4 10 20 20 8 9 10 14 9 9 4 9 9 8 8 8 8 nan
nan 9 9 14 14 11 12 7 7 8 10 9 10 11 7 8 10 12 8 6 8 11 10 8 11 12 8 8 10 18 21 6 8 4 14 6 5 11 9 5 7 9 8 7 nan
nan 9 11 11 13 11 8 9 9 6 5 9 8 9 9 7 14 11 4 6 12 11 7 10 11 15 14 10 4 5 19 19 10 5 9 1 5 21 7 6 9 7 7 7 nan
nan 11 13 12 7 10 8 9 8 7 8 7 8 8 12 12 9 7 12 9 5 9 10 8 9 9 16 12 8 8 11 20 14 8 11 10 10 15 9 9 8 9 8 8 nan
nan 14 10 7 12 10 8 7 6 10 8 9 9 6 9 11 10 8 9 9 9 9 10 9 11 13 12 10 14 13 6 7 10 14 12 8 4 19 27 14 12 10 9 9 nan
nan 14 8 9 11 8 7 8 9 10 7 10 6 5 9 11 11 8 8 11 10 8 7 13 10 6 11 13 12 15 4 9 8 8 9 11 10 6 9 11 20 22 15 10 nan
nan 9 9 10 9 8 8 8 9 8 8 8 9 12 10 10 7 10 9 10 10 9 9 10 8 8 9 9 15 15 9 5 8 12 13 7 9 8 5 8 10 12 13 12 nan
nan 8 10 8 8 8 9 9 9 8 8 8 8 8 7 12 11 8 9 10 10 9 9 9 7 9 9 11 10 10 9 7 13 13 9 12 5 7 13 8 8 9 9 9 nan
nan 8 9 9 10 10 8 10 12 9 7 6 9 7 5 7 9 9 10 7 7 10 11 11 10 9 7 9 12 13 5 3 5 11 14 13 4 9 21 13 9 9 11 10 nan
nan 12 8 10 9 9 10 8 9 12 8 7 8 9 8 9 11 10 9 9 7 9 11 13 14 10 8 6 8 5 8 13 14 9 7 8 13 9 18 17 11 10 9 9 nan
nan 9 10 10 11 9 7 7 9 11 7 7 8 9 7 7 12 10 9 9 8 7 7 12 16 9 6 9 9 9 9 11 9 10 10 14 12 12 14 14 12 10 8 8 nan
nan 9 10 8 7 8 11 12 10 9 9 7 9 9 8 11 7 6 11 8 9 9 9 10 8 10 10 10 12 14 7 6 9 9 7 13 13 16 13 12 10 9 8 8 nan
nan 6 11 14 12 8 8 12 11 10 11 9 10 8 7 10 10 10 11 11 10 9 7 8 10 12 11 10 11 8 11 10 6 5 3 3 3 16 21 15 9 8 9 8 nan
nan 13 6 11 14 14 7 7 12 10 11 10 7 9 11 8 8 11 12 13 11 9 9 8 9 10 11 7 8 10 9 10 8 7 8 4 11 15 14 15 11 8 9 8 nan
nan nan nan nan nan nan nan nan nan nan nan nan nan nan nan nan nan nan nan nan nan nan nan nan nan nan nan nan nan nan nan nan nan nan nan nan nan nan nan nan nan nan nan nan nan
CAPE
5 6 6 5 7 7 8 8 8 13 13 15 16 10 10 7 0 9 6 0 1 8 16 65 25 7 43 56 70 12 5 0 0 0 0 0 0 0 0 0 0 0 0 2 0
2 6 4 9 8 2 3 9 12 13 8 9 5 8 18 8 5 2 1 0 8 6 38 22 39 34 112 113 114 39 4 0 0 0 0 0 0 0 0 0 0 0 0 0 0
3 4 4 6 6 4 6 9 6 9 8 10 10 10 3 3 10 4 20 47 105 141 104 67 63 103 89 110 105 50 29 0 0 0 0 0 0 0 0 0 0 0 0 0 0
6 4 5 5 5 6 7 5 5 9 7 4 20 11 0 9 0 1 1 0 19 94 181 111 146 125 73 95 81 99 20 4 0 0 0 0 0 0 0 0 0 0 0 0 0
6 5 5 2 2 3 2 2 2 6 9 4 28 26 26 4 7 2 0 0 0 0 149 164 223 198 71 74 129 70 57 25 0 29 0 0 0 0 0 0 0 0 0 0 0
5 6 4 1 1 2 1 2 1 2 4 5 38 18 32 20 3 9 0 0 0 3 56 183 208 211 130 104 101 13 42 56 7 9 0 0 0 0 0 0 0 0 0 0 0
8 2 6 8 9 7 5 4 1 0 0 12 37 34 21 12 7 4 0 0 0 11 48 80 240 317 103 23 69 87 8 111 31 3 0 0 0 0 0 0 0 0 0 0 0
15 10 9 4 4 3 6 4 2 0 0 13 37 43 8 14 26 12 35 22 22 34 60 143 313 302 123 52 1 5 61 44 21 0 0 0 0 0 0 0 0 0 0 0 0
12 6 10 2 6 5 3 4 2 0 0 0 8 27 15 14 26 22 1 3 0 50 126 200 339 145 26 46 12 10 9 88 46 0 0 0 0 0 0 0 0 0 0 0 0
4 9 7 2 7 5 2 0 0 0 0 0 1 9 10 11 7 5 1 9 9 69 145 163 147 93 4 9 4 2 1 47 30 1 0 0 0 0 0 0 0 0 0 0 0
7 12 6 2 8 1 1 0 1 1 1 0 0 6 6 9 14 12 7 3 61 74 57 98 82 32 10 0 0 0 8 58 0 0 0 0 0 0 0 0 0 0 0 0 0
9 5 2 5 3 3 0 0 0 0 1 0 0 5 7 6 18 22 10 2 38 34 48 13 51 7 3 1 10 14 10 23 12 0 0 0 7 0 0 0 0 0 0 0 0
4 6 2 6 1 0 0 0 0 0 14 0 0 0 2 4 10 8 27 17 5 7 35 11 12 11 8 4 13 17 4 57 62 0 0 0 62 0 0 0 0 0 0 0 0
3 1 5 2 0 0 0 0 0 0 37 0 7 7 11 17 17 0 10 29 28 32 8 10 4 12 12 13 9 8 29 26 3 30 0 12 25 0 0 0 0 0 0 0 0
3 2 5 0 0 0 0 0 0 3 6 0 0 0 4 12 3 9 0 20 40 19 10 10 6 18 17 4 3 1 0 8 36 41 1 1 73 1 0 0 0 0 0 0 0
4 1 2 0 0 0 0 0 0 11 4 0 0 2 7 9 9 2 8 14 2 17 14 12 3 10 9 5 3 0 1 33 132 76 152 0 21 69 0 0 0 0 0 0 0
4 1 3 0 0 0 0 0 3 13 0 2 3 9 10 6 9 2 7 1 29 20 33 20 10 3 0 0 0 0 52 206 252 227 89 1 0 4 0 0 0 0 0 0 0
2 1 0 0 0 0 0 5 10 0 1 0 1 3 3 6 3 0 0 22 7 5 39 125 26 0 0 0 0 1 125 172 74 49 36 0 0 0 0 0 0 0 0 0 0
0 2 8 2 0 0 6 17 0 0 0 2 3 6 11 4 3 4 23 15 5 4 31 35 27 0 0 0 0 0 22 0 1 0 23 0 0 0 0 0 0 0 0 0 0
0 3 7 0 0 0 3 0 0 0 0 0 14 0 6 9 4 9 4 0 4 0 0 0 26 0 0 0 0 0 0 0 12 89 45 0 0 8 0 0 0 0 0 0 0
0 3 3 0 0 2 7 0 0 0 0 0 1 2 2 2 0 7 1 0 0 0 0 0 2 11 3 15 26 0 0 0 1 0 31 0 0 0 0 0 0 0 0 0 0
4 5 2 0 7 0 0 0 0 0 0 0 0 0 0 0 1 14 1 1 0 0 2 0 0 25 18 0 0 0 0 0 32 0 0 0 0 0 0 0 0 0 0 0 0
0 0 3 3 4 0 0 0 0 0 0 0 0 0 0 0 0 0 0 0 0 1 5 0 6 21 3 1 0 0 0 0 0 0 0 0 0 0 0 0 0 0 0 0 0
0 4 2 5 0 0 0 0 0 0 0 0 0 0 0 0 0 0 0 0 0 0 0 0 0 0 15 6 2 3 0 0 0 6 0 0 0 0 0 0 0 0 0 0 0
0 0 0 1 0 0 0 0 0 0 0 0 0 0 0 0 0 0 0 0 0 0 0 0 4 0 0 0 0 0 0 0 0 0 0 0 0 0 0 0 0 0 0 0 0
0 0 0 0 0 0 0 0 0 0 0 0 0 0 0 0 0 0 0 0 0 0 0 0 4 0 0 0 0 0 0 0 0 0 0 0 0 0 0 0 0 0 0 0 0
0 0 0 0 0 0 0 0 0 0 0 0 0 0 0 0 0 0 0 0 0 0 0 0 0 0 4 0 0 0 0 0 0 0 0 0 0 0 0 0 0 0 0 0 0